Dewpoint
55 54 54 54 54 54 54 54 54 55 55 55 56 56 56 57 56 49 18 30 37 58 55 18 20 24 25 27 25 21 21 19 17 16 18 47 46 49 52 50 53 53 54 55 59
54 54 53 53 53 53 54 54 54 54 55 55 55 55 56 57 50 37 46 56 60 61 20 14 14 20 22 22 26 22 18 18 18 17 25 36 46 46 48 48 50 51 59 60 58
53 53 53 53 53 53 53 53 53 54 54 55 55 55 56 57 29 7 64 62 60 52 19 15 19 17 18 20 22 21 14 16 16 17 27 26 44 48 47 43 49 49 58 60 59
53 52 52 52 53 53 53 53 53 54 54 54 54 55 57 51 -3 21 66 67 63 34 23 21 19 15 16 16 19 18 19 18 16 16 22 29 44 47 48 44 53 52 56 60 60
52 52 52 52 52 53 53 53 53 53 54 54 54 55 52 25 17 23 64 64 46 26 22 20 17 17 13 16 18 18 17 17 17 15 19 36 36 35 46 47 50 54 55 59 60
52 52 51 51 52 53 53 53 54 53 53 54 54 56 38 19 18 50 52 39 30 24 23 19 14 21 22 23 20 19 17 18 19 20 17 23 32 44 40 47 50 52 55 56 59
52 52 51 52 53 53 53 53 53 54 54 54 55 53 35 18 31 34 32 31 28 25 23 23 21 23 26 24 23 21 20 19 19 19 32 38 35 39 40 48 48 50 53 55 59
52 52 51 52 52 53 53 53 54 56 55 55 56 52 19 25 33 30 30 25 32 26 23 23 23 21 23 24 21 19 20 13 17 19 42 35 14 23 35 44 44 48 49 53 55
51 51 51 51 52 52 52 53 55 57 56 57 51 38 17 38 30 29 28 16 25 27 26 21 22 21 24 21 19 21 10 18 17 25 41 34 22 23 22 39 43 47 49 51 53
51 51 51 51 52 51 52 52 55 57 56 55 48 36 26 21 28 31 31 27 28 25 23 22 24 24 24 21 10 12 16 19 19 18 21 21 24 24 25 25 29 43 47 50 53
49 50 51 51 51 50 48 38 31 29 31 29 29 25 21 28 30 32 28 25 29 28 24 24 19 18 21 25 21 21 21 21 22 23 22 22 23 23 32 40 34 42 46 50 53
49 49 50 50 49 50 41 32 32 32 29 29 28 27 26 26 21 27 27 20 22 24 25 24 19 23 23 23 22 23 22 20 21 22 23 23 22 23 44 43 44 44 47 49 55
50 50 51 49 49 40 38 33 32 34 28 23 23 22 21 23 21 23 27 27 22 24 24 23 21 23 22 23 22 21 21 21 19 22 24 21 20 23 37 51 50 48 48 50 54
50 50 50 49 39 36 31 34 33 34 20 17 27 24 28 27 21 26 28 24 24 21 24 23 23 23 22 21 21 20 21 21 22 22 17 22 14 25 30 40 50 50 52 50 55
50 49 49 47 38 27 30 34 35 36 6 15 24 25 28 26 26 27 33 23 23 21 24 20 22 22 24 22 23 20 23 23 23 23 23 20 17 19 39 26 29 50 54 55 57
49 49 48 42 38 33 35 36 34 14 10 16 20 20 20 24 25 28 28 26 24 23 26 21 25 22 23 22 23 22 23 25 26 24 20 21 18 16 20 31 38 51 55 56 57
48 48 46 42 26 37 35 30 17 11 14 21 21 18 20 20 20 22 26 23 20 21 21 19 19 21 24 20 23 23 25 21 18 18 16 24 20 21 28 31 42 43 49 57 57
48 47 42 43 42 39 31 24 15 10 14 25 21 20 20 21 19 23 21 21 22 21 19 15 11 17 19 19 17 24 27 21 18 16 14 24 20 21 34 42 52 52 52 56 57
46 37 37 38 39 40 28 19 18 17 22 25 20 19 20 21 20 23 22 19 20 23 20 20 17 20 19 21 19 23 23 26 26 26 20 19 25 29 37 45 50 53 56 57 58
39 36 32 41 41 34 27 26 20 21 26 26 17 23 21 21 20 20 23 27 23 22 25 24 20 19 20 22 22 24 26 24 26 22 19 18 23 20 30 31 39 52 55 57 59
36 23 36 41 40 32 24 24 24 25 30 25 25 23 23 23 23 19 19 27 32 22 24 24 26 18 19 18 16 20 19 27 28 27 20 20 19 35 35 37 39 40 52 56 58
32 15 39 39 31 33 27 28 32 28 32 28 29 25 24 23 22 22 21 28 36 31 22 28 30 22 19 20 22 21 21 28 19 23 28 26 23 32 34 33 37 42 52 55 58
29 30 38 40 28 30 33 31 30 30 30 29 30 29 30 28 24 27 26 34 35 36 35 31 29 24 25 23 25 21 22 26 31 33 27 23 22 31 39 43 44 48 52 56 57
32 16 31 37 36 33 32 31 30 31 30 31 30 31 30 29 32 29 32 35 35 36 45 42 33 28 22 22 28 29 28 28 31 27 25 25 24 28 32 36 37 49 53 56 57
34 27 34 29 32 34 33 32 29 27 30 31 34 32 31 30 30 33 35 32 31 39 35 39 33 31 28 27 28 27 26 25 28 30 29 28 28 29 35 38 39 45 54 56 56
32 33 35 34 34 32 34 32 30 29 28 25 32 31 30 30 30 32 34 34 31 34 32 37 32 32 27 24 22 22 21 24 25 28 29 30 32 33 38 38 40 45 51 54 55
37 37 35 32 32 30 31 31 31 30 34 31 33 31 30 33 38 38 38 38 36 32 30 32 32 30 23 25 24 19 19 20 21 20 27 28 33 34 36 42 41 45 50 51 54
Lifted_Index
15 15 15 16 16 16 16 15 15 15 15 14 14 14 14 13 12 11 11 11 11 12 11 10 9 8 7 7 6 4 2 0 0 1 1 -0 -1 -1 -1 -1 -1 -2 -2 -2 -2
16 16 16 16 16 16 16 15 15 15 15 15 14 14 14 13 12 11 10 11 11 11 11 10 9 8 7 6 6 4 2 0 0 1 1 0 -1 -1 -1 -1 -2 -2 -3 -2 -2
16 16 16 16 16 16 16 16 15 15 15 15 15 14 13 12 10 9 9 9 10 11 10 9 8 8 7 6 6 4 2 1 1 1 1 1 -0 -1 -1 -2 -2 -2 -3 -3 -3
16 16 16 16 16 16 16 16 15 15 15 15 15 14 13 11 10 9 7 7 9 11 10 9 8 7 6 6 6 4 3 2 2 2 1 1 -0 -1 -1 -1 -2 -2 -3 -4 -4
16 16 16 16 16 15 15 15 15 15 15 15 15 14 12 11 10 9 7 7 9 10 10 9 8 7 6 6 6 5 4 3 2 2 1 1 0 -0 -1 -1 -1 -2 -3 -4 -5
16 16 16 15 15 15 15 15 15 15 15 15 14 13 11 10 11 10 9 9 10 10 10 9 9 8 7 7 6 6 5 4 3 2 1 1 0 0 -0 -1 -2 -2 -3 -4 -5
15 15 15 15 15 14 14 14 13 13 13 14 14 12 11 11 12 11 10 10 10 10 11 11 10 9 8 7 7 6 5 3 3 2 1 1 0 0 -0 -1 -1 -2 -2 -4 -4
14 14 14 14 14 14 14 13 12 11 12 13 12 11 11 12 12 12 11 10 9 10 11 11 11 9 8 7 6 5 4 3 2 2 1 1 0 0 0 -0 -1 -1 -2 -3 -4
14 14 13 13 13 13 13 12 11 10 10 11 11 10 10 11 12 11 11 9 9 9 11 11 10 9 7 6 5 4 3 3 3 2 2 1 1 1 1 1 0 -1 -1 -2 -3
14 13 13 13 13 13 13 12 11 10 10 10 10 9 10 10 11 11 10 9 8 8 9 10 9 7 6 5 4 3 3 3 3 3 3 2 2 2 1 1 1 0 -1 -2 -3
14 14 13 13 13 12 12 11 11 10 9 9 9 9 9 10 10 10 10 9 8 8 8 8 7 6 6 6 5 4 4 3 3 4 4 3 3 2 1 1 0 1 -0 -1 -2
14 14 14 13 13 12 12 11 11 10 9 8 8 8 9 9 9 9 9 9 8 7 7 7 6 6 6 6 6 5 4 3 3 4 4 4 3 2 1 -0 -0 0 0 -1 -2
15 15 14 14 13 13 12 12 12 11 8 7 7 8 8 8 8 8 9 9 8 7 7 7 6 6 6 6 5 5 4 3 4 4 4 4 3 2 0 -1 -1 -0 -0 -1 -1
15 15 15 14 13 13 12 13 13 11 7 6 7 7 8 7 7 8 8 8 8 7 7 7 7 7 6 6 5 5 5 5 4 4 4 3 2 1 0 -0 -1 -1 -1 -1 -2
16 16 16 15 14 13 13 13 12 9 5 5 6 7 7 7 7 7 8 8 7 7 7 7 7 7 6 6 6 6 6 5 5 4 3 3 2 2 1 0 -0 -2 -2 -2 -2
16 16 16 16 15 14 13 12 10 7 4 5 6 6 6 6 6 7 7 7 6 6 6 7 7 6 6 6 6 6 5 5 4 3 3 2 2 2 2 1 0 -1 -2 -2 -2
15 16 16 16 15 15 13 11 8 5 5 6 6 6 5 5 6 6 6 6 5 5 5 5 6 6 6 6 6 6 5 3 2 1 2 2 2 2 2 2 0 -0 -1 -2 -2
15 15 16 16 16 15 12 9 6 5 6 6 6 6 5 5 5 5 5 5 5 5 4 4 4 5 6 6 6 5 4 3 2 1 2 3 3 3 3 1 0 -1 -1 -1 -1
15 15 15 15 15 14 11 8 6 6 7 7 6 6 5 5 4 4 4 4 5 5 4 4 4 5 6 6 6 5 5 4 3 2 2 3 3 3 2 1 -0 -1 -1 -1 -1
14 14 14 13 13 13 10 8 7 8 8 7 6 6 5 5 5 4 4 4 5 5 5 4 4 5 5 6 6 5 5 4 4 3 2 3 3 3 2 1 0 -1 -1 -1 -1
13 12 13 13 12 11 9 8 8 9 9 8 7 6 6 5 5 5 4 5 5 5 5 4 4 3 4 4 5 5 5 4 4 3 2 3 3 3 2 2 1 -0 -2 -2 -2
12 11 12 12 11 10 8 8 9 9 9 9 8 7 7 6 5 5 5 5 6 5 4 4 3 3 3 3 3 4 4 4 4 3 3 3 3 4 3 2 1 -0 -2 -3 -3
11 11 12 11 10 9 9 9 9 9 9 9 9 8 7 6 6 6 6 6 6 6 5 4 4 3 2 2 3 3 3 3 3 3 3 3 3 4 3 1 0 -1 -3 -3 -3
11 11 11 11 10 9 9 9 9 9 9 9 9 8 8 7 6 6 6 6 6 6 6 5 4 3 2 2 2 2 2 3 3 3 3 3 3 3 3 2 0 -2 -3 -3 -3
11 10 10 10 10 10 9 9 8 8 9 9 8 8 7 7 7 6 6 6 6 6 6 5 4 4 3 3 3 3 2 2 2 2 3 3 3 3 3 2 1 -1 -3 -3 -3
11 11 11 10 10 9 9 9 9 9 9 9 8 8 8 7 7 7 7 7 7 7 7 6 5 4 4 4 4 3 3 3 2 2 2 2 2 2 2 2 1 -1 -2 -3 -3
12 12 11 11 10 9 9 9 9 9 9 9 9 8 8 8 7 7 8 8 8 7 7 7 6 5 4 4 4 4 4 3 3 2 2 2 2 2 2 2 1 -0 -2 -2 -3